Regional Weather Roundup
Issued by NWS

Home | Current Version | Previous Version | Text Only | Print | Product List | Glossary On
Versions: 1 2 3 4 5 6 7 8 9 10 11 12 13 14 15 16 17 18 19 20 21 22 23 24 25 26 27
000
ASUS44 KLIX 111112
RWRLA
LOUISIANA WEATHER ROUNDUP
NATIONAL WEATHER SERVICE NEW ORLEANS LA
500 AM CST MON DEC 11 2017

NOTE: "FAIR" INDICATES FEW OR NO CLOUDS BELOW 12,000 FEET WITH NO
      SIGNIFICANT WEATHER AND/OR OBSTRUCTIONS TO VISIBILITY.
      SKY/WX - SKY CONDITION AND SIGNIFICANT WEATHER.
      TMP - AIR TEMPERATURE.    DP   - DEWPOINT TEMPERATURE.
      RH  - RELATIVE HUMIDITY.  PRES - PRESSURE.
      HX  - HEAT INDEX.         WCI  - WIND CHILL INDEX.

*  THESE STATIONS ARE NOT NWS OR FAA STATIONS AND ARE NOT UNDER
   NWS QUALITY CONTROL.

LAZ040-048-061>063-065-066-069-111200-
SOUTHEAST LOUISIANA

CITY           SKY/WX    TMP DP  RH WIND       PRES   REMARKS
N.O. INTL ARPT PTCLDY    37  35  92 CALM      30.31F
N.O. LAKEFRONT CLEAR     49  42  77 W10       30.32S
N.O. DOWNTOWN* FAIR      45  37  73 CALM      30.32F
RESERVE*       FAIR      39  36  87 CALM      30.31F
SLIDELL        CLEAR     32  29  88 CALM      30.31S
BATON ROUGE    CLEAR     35  33  92 CALM      30.30F
BOOTHVILLE     CLEAR     43  39  86 CALM      30.33S
BELLE CHASSE   CLEAR     31  31 100 CALM      30.31F
BOGALUSA*      NOT AVBL
GALLIANO*      SUNNY     31  29  92 CALM      30.33S
NEW ROADS*     FAIR      32  32  99 CALM      30.30F
GONZALES*      FAIR      35  34  93 CALM      30.30F
HAMMOND*       CLEAR     32  32 100 CALM      30.31S
HOUMA*         SNOW      33  33 100 CALM      30.32S VSB 1/2
PORT FOURCHON* NOT AVBL

$$

LAZ041-044-053-054-111200-
SOUTHWEST LOUISIANA

CITY           SKY/WX    TMP DP  RH WIND       PRES   REMARKS
LAKE CHARLES   CLEAR     40  38  93 CALM      30.30F
LAFAYETTE      CLEAR     40  39  97 S3        30.31F
PATTERSON      CLEAR     35  35 100 CALM      30.32F FOG
SALT POINT       N/A     45  43  93 CALM      30.30F
NEW IBERIA     PTCLDY    37  33  85 CALM      30.32F
CHENAULT AIRPK CLEAR     36  35  94 CALM      30.31S

$$

LAZ027-028-111200-
CENTRAL LOUISIANA

CITY           SKY/WX    TMP DP  RH WIND       PRES   REMARKS
FORT POLK      CLEAR     41  34  76 CALM      30.27F
ALEXANDRIA INT CLEAR     34  32  92 CALM      30.26F
ALEXANDRIA     CLEAR     32  31  96 W3        30.26F

$$

LAZ001-002-111200-
NORTHWEST LOUISIANA

CITY           SKY/WX    TMP DP  RH WIND       PRES   REMARKS
SHREVEPORT     CLEAR     40  31  70 SW3       30.24F
BARKSDALE AFB  CLEAR     33  29  83 CALM      30.25S
DTN SHREVEPORT CLEAR     35  29  78 CALM      30.25F

$$

LAZ014-016-111200-
NORTHEAST LOUISIANA

CITY           SKY/WX    TMP DP  RH WIND       PRES   REMARKS
MONROE         CLEAR     43  34  70 CALM      30.25S
TALLULAH       CLEAR     32  30  92 CALM      30.25S

$$





USA.gov is the U.S. government's official web portal to all federal, state and local government web resources and services.